Lima, OH

9:11 AM EDT on August 23, 2017 (GMT -0400)
Lima Allen County

Weather History for KAOH - June, 2013

Change the Weather History Date:

Thursday, June 13, 2013

  Actual Average (KFDY) Record (KFDY)
Temperature  
Mean Temperature 73 °F -  
Max Temperature 78 °F 79 °F 96 °F (2017)
Min Temperature 64 °F 59 °F 44 °F (1978)
Cooling Degree Days 8    
Growing Degree Days 23 (Base 50)    
Moisture  
Dew Point 60 °F    
Average Humidity 70    
Maximum Humidity 88    
Minimum Humidity 42    
Precipitation  
Precipitation 0.47 in - - ()
Sea Level Pressure  
Sea Level Pressure 29.75 in    
Wind  
Wind Speed 14 mph (NW)    
Max Wind Speed 39 mph    
Max Gust Speed 53 mph    
Visibility 8 miles    
Events Rain , Thunderstorm    
Averages and records for this station are not official NWS values.
T = Trace of Precipitation, MM = Missing Value Source: NWS Daily Summary

Daily Weather History Graph

Daily Weather History Graph

Search for Another Location

Airport or City:

Trip Planner

Search our weather history database for the weather conditions in past years. The results will help you decide how hot, cold, wet, or windy it might be!

Date:

Astronomy

Jun. 13, 2013 Rise Set
Actual Time 6:04 AM EDT 9:08 PM EDT
Civil Twilight 5:31 AM EDT 9:41 PM EDT
Nautical Twilight 4:48 AM EDT 10:24 PM EDT
Astronomical Twilight 3:58 AM EDT 11:14 PM EDT
Moon 10:41 AM EDT (6/13) No Moon Set
Length of Visible Light 16h 10m
Length of Day
15h 03m
Waxing Crescent, 21% of the Moon is Illuminated
Jun 13
Waxing Crescent
Jun 16
First Quarter
Jun 23
Full
Jun 30
Last Quarter
Jul 8
New

Hourly Weather History & Observations

Time (EDT) Temp. Heat Index Dew Point Humidity Pressure Visibility Wind Dir Wind Speed Gust Speed Precip Events Conditions
12:12 AM 82.4 °F 86.3 °F 69.8 °F 66% 29.66 in 10.0 mi SSW 11.5 mph 18.4 mph N/A Thunderstorm Scattered Clouds
12:17 AM 78.8 °F - 68.0 °F 69% 29.73 in 4.0 mi WNW 39.1 mph 52.9 mph 0.04 in Rain , Thunderstorm Light Rain
12:20 AM 71.6 °F - 64.4 °F 78% 29.71 in 1.8 mi WNW 18.4 mph 52.9 mph 0.15 in Rain , Thunderstorm Heavy Thunderstorms and Rain
12:29 AM 68.0 °F - 64.4 °F 88% 29.72 in 1.5 mi West 12.7 mph - 0.27 in Rain , Thunderstorm Thunderstorms and Rain
12:32 AM 68.0 °F - 64.4 °F 88% 29.72 in 3.0 mi West 13.8 mph - 0.28 in Rain , Thunderstorm Light Thunderstorms and Rain
12:42 AM 69.8 °F - 64.4 °F 83% 29.71 in 9.0 mi West 12.7 mph - 0.29 in Rain , Thunderstorm Light Thunderstorms and Rain
12:53 AM 68.0 °F - 64.0 °F 87% 29.70 in 9.0 mi West 13.8 mph 21.9 mph 0.30 in Rain , Thunderstorm Light Thunderstorms and Rain
1:46 AM 68.0 °F - 64.4 °F 88% 29.69 in 6.0 mi NW 4.6 mph - 0.15 in Rain Rain
1:53 AM 68.0 °F - 64.0 °F 87% 29.67 in 5.0 mi Calm Calm - 0.17 in Rain , Thunderstorm Rain
2:13 AM 68.0 °F - 64.4 °F 88% 29.65 in 2.5 mi SW 3.5 mph - 0.07 in Rain , Thunderstorm Thunderstorms and Rain
2:22 AM 68.0 °F - 64.4 °F 88% 29.62 in 5.0 mi SSE 11.5 mph - 0.10 in Rain , Thunderstorm Light Thunderstorms and Rain
7:53 AM 68.0 °F - 63.0 °F 84% 29.65 in 10.0 mi NW 10.4 mph - N/A   Overcast
8:07 AM 68.0 °F - 62.6 °F 83% 29.68 in 10.0 mi NW 13.8 mph 20.7 mph N/A   Overcast
8:39 AM 68.0 °F - 62.6 °F 83% 29.69 in 10.0 mi North 9.2 mph - N/A   Overcast
8:53 AM 68.0 °F - 62.1 °F 81% 29.67 in 10.0 mi North 12.7 mph 20.7 mph N/A   Overcast
9:31 AM 66.2 °F - 62.6 °F 88% 29.71 in 9.0 mi North 12.7 mph 24.2 mph N/A   Overcast
9:42 AM 66.2 °F - 62.6 °F 88% 29.72 in 8.0 mi North 11.5 mph 20.7 mph N/A   Overcast
9:53 AM 66.0 °F - 61.0 °F 84% 29.70 in 5.0 mi North 21.9 mph 31.1 mph 0.00 in Rain Light Rain
10:11 AM 64.4 °F - 57.2 °F 77% 29.73 in 10.0 mi North 16.1 mph 23.0 mph 0.00 in Rain Light Rain
10:43 AM 66.2 °F - 55.4 °F 68% 29.74 in 10.0 mi NNE 11.5 mph - 0.00 in   Overcast
10:53 AM 66.0 °F - 55.9 °F 70% 29.73 in 10.0 mi North 10.4 mph - 0.00 in   Overcast
11:53 AM 69.1 °F - 55.9 °F 63% 29.77 in 10.0 mi NNW 11.5 mph - N/A   Overcast
12:53 PM 71.1 °F - 57.9 °F 63% 29.78 in 10.0 mi NNW 13.8 mph 21.9 mph N/A   Scattered Clouds
1:53 PM 75.0 °F - 57.9 °F 55% 29.78 in 10.0 mi North 15.0 mph 23.0 mph N/A   Clear
2:53 PM 75.9 °F - 55.0 °F 48% 29.79 in 10.0 mi NNW 11.5 mph 25.3 mph N/A   Scattered Clouds
3:53 PM 77.0 °F - 55.0 °F 47% 29.81 in 10.0 mi NNW 10.4 mph - N/A   Scattered Clouds
4:53 PM 78.1 °F - 54.0 °F 43% 29.82 in 10.0 mi NW 16.1 mph 24.2 mph N/A   Scattered Clouds
5:53 PM 77.0 °F - 52.0 °F 42% 29.82 in 10.0 mi North 11.5 mph 21.9 mph N/A   Mostly Cloudy
6:53 PM 75.9 °F - 52.0 °F 43% 29.83 in 10.0 mi NW 10.4 mph - N/A   Partly Cloudy
7:53 PM 75.0 °F - 51.1 °F 43% 29.85 in 10.0 mi NNW 9.2 mph - N/A   Clear
8:10 PM 73.4 °F - 51.8 °F 47% 29.86 in 10.0 mi NNW 6.9 mph - N/A   Partly Cloudy
8:53 PM 73.0 °F - 54.0 °F 51% 29.86 in 10.0 mi NNW 6.9 mph - N/A   Mostly Cloudy
9:53 PM 72.0 °F - 55.9 °F 57% 29.88 in 10.0 mi NNW 10.4 mph - N/A   Overcast
10:53 PM 69.1 °F - 55.9 °F 63% 29.91 in 10.0 mi NW 10.4 mph - N/A   Overcast
11:53 PM 68.0 °F - 55.0 °F 63% 29.92 in 10.0 mi WNW 10.4 mph - N/A   Overcast